Location: *
(52.2090°N, 4.1550°W)
Time: 22:53:07
(UTC+00:00)

Cosmos 1606 - Pass Details

Date: 19 July 2019
Orbit: 504 x 529 km, 82.5° (Epoch: 25 August)

Event Time Altitude Azimuth Distance (km) Brightness Sun altitude
Rises 22:31:20 0° 341° (NNW) 2,625 8.2 -13.1°
Reaches altitude 10° 22:33:36 10° 332° (NNW) 1,732 6.9 -13.2°
Maximum altitude 22:37:00 32° 268° (W) 898 4.1 -13.5°
Enters shadow 22:40:09 11° 207° (SSW) 1,645 4.9 -13.7°
